TimeEDT,TemperatureF,Dew PointF,Humidity,Sea Level PressureIn,VisibilityMPH,Wind Direction,Wind SpeedMPH,Gust SpeedMPH,PrecipitationIn,Events,Conditions,WindDirDegrees,DateUTC
12:53 AM,79.0,73.0,82,30.08,-9999.0,ESE,10.4,-,0.00,,Scattered Clouds,120,2013-07-18 04:53:00
1:53 AM,79.0,75.0,88,30.06,-9999.0,SE,12.7,-,N/A,,Clear,130,2013-07-18 05:53:00
2:53 AM,79.0,73.0,82,30.05,-9999.0,ESE,9.2,-,N/A,,Partly Cloudy,120,2013-07-18 06:53:00
3:53 AM,80.1,73.9,81,30.04,-9999.0,SE,12.7,-,0.00,,Mostly Cloudy,140,2013-07-18 07:53:00
4:53 AM,80.1,73.9,81,30.03,-9999.0,SSE,10.4,-,N/A,,Scattered Clouds,150,2013-07-18 08:53:00
5:53 AM,80.1,75.0,85,30.04,-9999.0,SE,8.1,-,N/A,,Scattered Clouds,130,2013-07-18 09:53:00
6:53 AM,80.1,75.0,85,30.05,-9999.0,ESE,10.4,-,N/A,,Partly Cloudy,120,2013-07-18 10:53:00
6:57 AM,80.6,73.4,79,30.05,10.0,ESE,8.1,-,N/A,,Clear,120,2013-07-18 10:57:00
7:53 AM,81.0,75.0,82,30.06,10.0,ESE,9.2,-,N/A,,Clear,120,2013-07-18 11:53:00
8:46 AM,82.4,75.2,79,30.08,-9999.0,ESE,9.2,-,N/A,,Mostly Cloudy,120,2013-07-18 12:46:00
8:53 AM,82.0,75.0,79,30.08,10.0,ESE,9.2,-,N/A,,Mostly Cloudy,120,2013-07-18 12:53:00
9:53 AM,82.9,75.9,79,30.09,-9999.0,ESE,10.4,-,N/A,,Clear,120,2013-07-18 13:53:00
10:53 AM,84.0,77.0,79,30.09,-9999.0,ESE,10.4,-,N/A,,Clear,120,2013-07-18 14:53:00
10:57 AM,84.2,77.0,79,30.09,10.0,ESE,10.4,-,N/A,,Clear,120,2013-07-18 14:57:00
11:20 AM,84.2,77.0,79,30.09,10.0,SE,11.5,-,N/A,,Partly Cloudy,140,2013-07-18 15:20:00
11:53 AM,81.0,73.9,79,30.10,10.0,SSE,15.0,-,N/A,,Mostly Cloudy,150,2013-07-18 15:53:00
12:06 PM,80.6,75.2,84,30.09,7.0,SE,16.1,-,0.00,Rain,Light Rain,140,2013-07-18 16:06:00
12:53 PM,80.1,72.0,76,30.11,10.0,ESE,13.8,23.0,0.00,,Scattered Clouds,120,2013-07-18 16:53:00
1:53 PM,79.0,73.0,82,30.10,-9999.0,East,6.9,-,N/A,,Clear,80,2013-07-18 17:53:00
2:53 PM,80.1,73.0,79,30.08,-9999.0,ENE,8.1,-,N/A,,Mostly Cloudy,60,2013-07-18 18:53:00
3:13 PM,80.6,73.4,79,30.08,-9999.0,ENE,9.2,-,N/A,,Mostly Cloudy,70,2013-07-18 19:13:00
3:21 PM,80.6,71.6,74,30.08,-9999.0,ENE,10.4,18.4,N/A,,Mostly Cloudy,70,2013-07-18 19:21:00
3:53 PM,79.0,72.0,79,30.07,-9999.0,East,10.4,-,N/A,,Mostly Cloudy,80,2013-07-18 19:53:00
4:53 PM,78.1,72.0,81,30.06,-9999.0,ENE,8.1,-,N/A,,Partly Cloudy,60,2013-07-18 20:53:00
5:35 PM,78.8,71.6,78,30.08,10.0,North,10.4,-,N/A,,Mostly Cloudy,360,2013-07-18 21:35:00
5:53 PM,79.0,73.0,82,30.07,10.0,North,12.7,-,N/A,,Overcast,360,2013-07-18 21:53:00
6:28 PM,77.0,73.4,89,30.08,-9999.0,NNE,12.7,-,0.00,Rain,Light Rain,20,2013-07-18 22:28:00
6:53 PM,77.0,73.0,88,30.08,10.0,NNE,9.2,-,0.00,Rain,Light Rain,20,2013-07-18 22:53:00
7:53 PM,77.0,73.0,88,30.06,10.0,NE,6.9,-,0.01,,Clear,50,2013-07-18 23:53:00
8:53 PM,77.0,73.0,88,30.06,10.0,East,8.1,-,N/A,,Clear,80,2013-07-19 00:53:00
9:53 PM,78.1,73.9,87,30.08,10.0,East,6.9,-,N/A,,Clear,80,2013-07-19 01:53:00
10:53 PM,79.0,75.0,88,30.07,-9999.0,East,5.8,-,N/A,,Clear,80,2013-07-19 02:53:00
11:53 PM,78.1,75.9,93,30.09,-9999.0,ENE,5.8,-,N/A,,Clear,70,2013-07-19 03:53:00